,,Stat6,,Stat2,,Stat8,,Stat9,,Stat10,,Wind1,,Wind1,
time,status,PA1M_AVG,status,PR1M_SUM,status,RH1M_AVG,status,SR1M_AVG,status,TA1M_AVG,status,W1dAve1m,status,W1sAve1m,
2006-04-20, 00:00:00,VALID,915.925,VALID,0,VALID,95.8205,VALID,15.5544,VALID,20.6749,VALID,23,VALID,1.02251,
2006-04-20, 00:01:00,VALID,915.942,VALID,0,VALID,95.8866,VALID,17.3544,VALID,21.8404,VALID,20,VALID,1.35122,
2006-04-20, 00:02:00,VALID,915.946,VALID,0,VALID,96.1282,VALID,19.0695,VALID,22.9938,VALID,19,VALID,1.29453,
2006-04-20, 00:03:01,VALID,915.974,VALID,0,VALID,96.0328,VALID,19.8846,VALID,22.1802,VALID,27,VALID,1.19422,
2006-04-20, 00:04:00,VALID,915.978,VALID,0,VALID,96.2477,VALID,18.5261,VALID,23.0757,VALID,21,VALID,0.968178,
2006-04-20, 00:05:00,VALID,915.999,VALID,0,VALID,96.1193,VALID,17.1167,VALID,21.9956,VALID,20,VALID,1.30301,
2006-04-20, 00:06:01,VALID,916.045,VALID,0,VALID,96.202,VALID,13.9582,VALID,23.2146,VALID,344,VALID,0.621299,
2006-04-20, 00:07:00,VALID,916.071,VALID,0,VALID,96.113,VALID,10.596,VALID,22.7668,VALID,177,VALID,0.367969,
2006-04-20, 00:08:00,VALID,916.102,VALID,0,VALID,96.0507,VALID,9.15267,VALID,21.1339,VALID,145,VALID,0.283067,
2006-04-20, 00:09:00,VALID,916.129,VALID,0,VALID,96.1829,VALID,7.76024,VALID,21.9,VALID,145,VALID,0.0904297,
2006-04-20, 00:10:00,VALID,916.154,VALID,0,VALID,96.2617,VALID,7.16591,VALID,22.313,VALID,165,VALID,0.323828,
2006-04-20, 00:11:01,VALID,916.177,VALID,0,VALID,96.3673,VALID,5.82442,VALID,22.4905,VALID,130,VALID,0.34282,
2006-04-20, 00:12:00,VALID,916.197,VALID,0,VALID,96.675,VALID,4.09238,VALID,21.6859,VALID,34,VALID,0.513626,
2006-04-20, 00:13:00,VALID,916.206,VALID,0,VALID,96.4983,VALID,2.51316,VALID,22.2625,VALID,60,VALID,0.713956,
2006-04-20, 00:14:01,VALID,916.223,VALID,0,VALID,96.9611,VALID,1.39243,VALID,22.2859,VALID,31,VALID,0.649325,
2006-04-20, 00:15:00,VALID,916.228,VALID,0,VALID,96.9408,VALID,0.933946,VALID,21.6641,VALID,17,VALID,0.847202,
2006-04-20, 00:16:00,VALID,916.236,VALID,0,VALID,96.834,VALID,0.560367,VALID,22.4109,VALID,358,VALID,0.273624,
2006-04-20, 00:17:00,VALID,916.237,VALID,0,VALID,96.9281,VALID,0.186789,VALID,22.032,VALID,12,VALID,0.722284,
2006-04-20, 00:18:01,VALID,916.266,VALID,0,VALID,97.0527,VALID,0.0679233,VALID,22.7317,VALID,13,VALID,0.207118,
2006-04-20, 00:19:00,VALID,916.284,VALID,0,VALID,97.2116,VALID,0.0509425,VALID,21.7615,VALID,13,VALID,0.410342,
2006-04-20, 00:20:00,VALID,916.328,VALID,0,VALID,97.3108,VALID,-0.0679233,VALID,22.3088,VALID,13,VALID,0.149962,
2006-04-20, 00:21:01,VALID,916.353,VALID,0,VALID,97.2981,VALID,-0.118866,VALID,22.3084,VALID,20,VALID,0.755145,
2006-04-20, 00:22:00,VALID,916.4,VALID,0,VALID,97.293,VALID,-0.118866,VALID,22.0809,VALID,2,VALID,0.658346,
2006-04-20, 00:23:01,VALID,916.439,VALID,0,VALID,97.3515,VALID,-0.0849042,VALID,22.7213,VALID,9,VALID,0.530887,
2006-04-20, 00:24:01,VALID,916.484,VALID,0,VALID,97.4443,VALID,-0.118866,VALID,22.6126,VALID,16,VALID,0.742378,
2006-04-20, 00:25:00,VALID,916.518,VALID,0,VALID,97.4825,VALID,-0.20377,VALID,22.8098,VALID,18,VALID,0.740104,
2006-04-20, 00:26:00,VALID,916.537,VALID,0,VALID,97.4367,VALID,-0.20377,VALID,23.267,VALID,25,VALID,1.101,
2006-04-20, 00:27:01,VALID,916.575,VALID,0,VALID,97.5219,VALID,-0.169808,VALID,21.8914,VALID,23,VALID,0.735224,
2006-04-20, 00:28:00,VALID,916.592,VALID,0,VALID,97.4901,VALID,-0.20377,VALID,23.0538,VALID,30,VALID,0.831745,
2006-04-20, 00:29:01,VALID,916.599,VALID,0,VALID,97.4914,VALID,-0.186789,VALID,21.6027,VALID,22,VALID,0.777798,
2006-04-20, 00:30:00,VALID,916.607,VALID,0,VALID,97.513,VALID,-0.220751,VALID,21.7848,VALID,21,VALID,1.17257,
2006-04-20, 00:31:00,VALID,916.612,VALID,0,VALID,97.4736,VALID,-0.220751,VALID,22.0149,VALID,20,VALID,0.990141,
2006-04-20, 00:32:01,VALID,916.633,VALID,0,VALID,97.3553,VALID,-0.20377,VALID,23.1809,VALID,345,VALID,1.12222,
2006-04-20, 00:33:00,VALID,916.648,VALID,0,VALID,97.3299,VALID,-0.305655,VALID,21.8657,VALID,4,VALID,0.984028,
2006-04-20, 00:34:01,VALID,916.671,VALID,0,VALID,97.4876,VALID,-0.305655,VALID,21.0697,VALID,12,VALID,0.964063,
2006-04-20, 00:35:00,VALID,916.71,VALID,0,VALID,97.4507,VALID,-0.288674,VALID,21.8085,VALID,14,VALID,0.906822,
2006-04-20, 00:36:00,VALID,916.743,VALID,0,VALID,97.6058,VALID,-0.305655,VALID,22.4316,VALID,16,VALID,0.691406,
2006-04-20, 00:37:01,VALID,916.773,VALID,0,VALID,97.6986,VALID,-0.288674,VALID,22.1831,VALID,20,VALID,0.975781,
2006-04-20, 00:38:00,VALID,916.805,VALID,0,VALID,97.6808,VALID,-0.271693,VALID,22.3067,VALID,23,VALID,0.823552,
2006-04-20, 00:39:00,VALID,916.824,VALID,0,VALID,97.8169,VALID,-0.186789,VALID,22.3277,VALID,23,VALID,0.673921,
2006-04-20, 00:40:01,VALID,916.843,VALID,0,VALID,97.7762,VALID,-0.220751,VALID,21.8406,VALID,18,VALID,0.938045,
2006-04-20, 00:41:00,VALID,916.862,VALID,0,VALID,97.8093,VALID,-0.254712,VALID,21.6857,VALID,12,VALID,0.69029,
2006-04-20, 00:42:01,VALID,916.872,VALID,0,VALID,97.5766,VALID,-0.305655,VALID,21.8476,VALID,13,VALID,0.660633,
2006-04-20, 00:43:01,VALID,916.885,VALID,0,VALID,97.5855,VALID,-0.288674,VALID,22.0307,VALID,25,VALID,0.369004,
2006-04-20, 00:44:00,VALID,916.896,VALID,0,VALID,97.5829,VALID,-0.288674,VALID,22.004,VALID,11,VALID,0.490007,
2006-04-20, 00:45:01,VALID,916.894,VALID,0,VALID,97.6274,VALID,-0.271693,VALID,22.6518,VALID,3,VALID,1.06306,
2006-04-20, 00:46:01,VALID,916.888,VALID,0,VALID,97.368,VALID,-0.288674,VALID,21.5233,VALID,1,VALID,0.924419,
2006-04-20, 00:47:01,VALID,916.905,VALID,0,VALID,97.466,VALID,-0.288674,VALID,21.8677,VALID,13,VALID,1.10556,
2006-04-20, 00:48:01,VALID,916.917,VALID,0,VALID,97.7432,VALID,-0.288674,VALID,22.1552,VALID,14,VALID,1.00915,
2006-04-20, 00:49:01,VALID,916.924,VALID,0,VALID,97.7978,VALID,-0.305655,VALID,22.5555,VALID,18,VALID,1.13953,
2006-04-20, 00:50:01,VALID,916.952,VALID,0,VALID,97.7279,VALID,-0.288674,VALID,22.102,VALID,19,VALID,1.30824,
2006-04-20, 00:51:00,VALID,916.973,VALID,0,VALID,97.9682,VALID,-0.20377,VALID,21.5104,VALID,15,VALID,0.421131,
2006-04-20, 00:52:01,VALID,916.998,VALID,0,VALID,98.0344,VALID,-0.20377,VALID,22.4039,VALID,16,VALID,0.904615,
2006-04-20, 00:53:01,VALID,917,VALID,0,VALID,98.145,VALID,-0.20377,VALID,22.6586,VALID,28,VALID,1.19323,
2006-04-20, 00:54:01,VALID,917.02,VALID,0,VALID,98.2442,VALID,-0.20377,VALID,22.7882,VALID,24,VALID,0.990552,
2006-04-20, 00:55:01,VALID,917.032,VALID,0,VALID,98.3141,VALID,-0.20377,VALID,22.2597,VALID,22,VALID,0.967014,
2006-04-20, 00:56:01,VALID,917.04,VALID,0,VALID,98.0534,VALID,-0.237732,VALID,21.822,VALID,16,VALID,0.659549,
2006-04-20, 00:57:01,VALID,917.054,VALID,0,VALID,98.0242,VALID,-0.271693,VALID,22.1441,VALID,16,VALID,0.531631,
2006-04-20, 00:58:01,VALID,917.076,VALID,0,VALID,98.0178,VALID,-0.254712,VALID,21.6061,VALID,24,VALID,0.567522,
2006-04-20, 00:59:01,VALID,917.096,VALID,0,VALID,98.0204,VALID,-0.237732,VALID,22.2666,VALID,33,VALID,0.222656,
2006-04-20, 01:00:01,VALID,917.119,VALID,0,VALID,97.8665,VALID,-0.254712,VALID,22.258,VALID,15,VALID,0.193407,
2006-04-20, 01:01:01,VALID,917.157,VALID,0,VALID,97.8487,VALID,-0.271693,VALID,21.8111,VALID,15,VALID,0.231957,
2006-04-20, 01:02:01,VALID,917.169,VALID,0,VALID,97.953,VALID,-0.254712,VALID,21.6183,VALID,15,VALID,0.0460069,
2006-04-20, 01:03:01,VALID,917.198,VALID,0,VALID,97.9606,VALID,-0.254712,VALID,22.0215,VALID,85,VALID,0.26029,
2006-04-20, 01:04:01,VALID,917.215,VALID,0,VALID,97.9619,VALID,-0.254712,VALID,22.2439,VALID,97,VALID,0.0344893,
2006-04-20, 01:05:01,VALID,917.229,VALID,0,VALID,97.9326,VALID,-0.288674,VALID,21.2502,VALID,3,VALID,0.169085,
2006-04-20, 01:06:01,VALID,917.248,VALID,0,VALID,98.0534,VALID,-0.271693,VALID,22.1199,VALID,17,VALID,0.383507,
2006-04-20, 01:07:01,VALID,917.258,VALID,0,VALID,98.1513,VALID,-0.20377,VALID,21.8403,VALID,25,VALID,0.016369,
2006-04-20, 01:08:01,VALID,917.265,VALID,0,VALID,97.9186,VALID,-0.271693,VALID,22.4243,VALID,308,VALID,0.259475,
2006-04-20, 01:09:01,VALID,917.259,VALID,0,VALID,97.8741,VALID,-0.20377,VALID,22.3801,VALID,298,VALID,0,
2006-04-20, 01:10:01,VALID,917.277,VALID,0,VALID,98.0153,VALID,-0.271693,VALID,21.9549,VALID,351,VALID,0.21984,
2006-04-20, 01:11:01,VALID,917.265,VALID,0,VALID,98.2607,VALID,-0.271693,VALID,21.7666,VALID,11,VALID,0.620722,
2006-04-20, 01:12:01,VALID,917.264,VALID,0,VALID,98.309,VALID,-0.237732,VALID,21.0695,VALID,22,VALID,0.760789,
2006-04-20, 01:13:01,VALID,917.281,VALID,0,VALID,98.2607,VALID,-0.288674,VALID,22.2217,VALID,20,VALID,0.0445668,
2006-04-20, 01:14:01,VALID,917.299,VALID,0,VALID,98.2276,VALID,-0.237732,VALID,20.8302,VALID,20,VALID,0.517485,
2006-04-20, 01:15:01,VALID,917.315,VALID,0,VALID,98.2543,VALID,-0.254712,VALID,22.1577,VALID,19,VALID,0.50093,
2006-04-20, 01:16:01,VALID,917.319,VALID,0,VALID,98.3281,VALID,-0.237732,VALID,21.7469,VALID,19,VALID,0.118963,
2006-04-20, 01:17:01,VALID,917.339,VALID,0,VALID,98.3637,VALID,-0.237732,VALID,22.1101,VALID,21,VALID,0.300409,
2006-04-20, 01:18:01,VALID,917.352,VALID,0,VALID,98.3434,VALID,-0.220751,VALID,21.379,VALID,45,VALID,0.215021,
2006-04-20, 01:19:01,VALID,917.372,VALID,0,VALID,98.2175,VALID,-0.254712,VALID,20.9115,VALID,164,VALID,0.273264,
2006-04-20, 01:20:01,VALID,917.38,VALID,0,VALID,98.2073,VALID,-0.271693,VALID,21.9562,VALID,173,VALID,0.0637718,
2006-04-20, 01:21:01,VALID,917.379,VALID,0,VALID,98.1374,VALID,-0.254712,VALID,21.2383,VALID,116,VALID,0.488467,
2006-04-20, 01:22:01,VALID,917.391,VALID,0,VALID,98.351,VALID,-0.254712,VALID,21.4182,VALID,19,VALID,0.605741,
2006-04-20, 01:23:01,VALID,917.403,VALID,0,VALID,98.4553,VALID,-0.271693,VALID,22.2197,VALID,17,VALID,0.665305,
2006-04-20, 01:24:00,VALID,917.412,VALID,0,VALID,98.4985,VALID,-0.288674,VALID,21.531,VALID,18,VALID,0.638445,
2006-04-20, 01:25:00,VALID,917.431,VALID,0,VALID,98.5417,VALID,-0.271693,VALID,22.0955,VALID,19,VALID,0.605097,
2006-04-20, 01:26:00,VALID,917.463,VALID,0,VALID,98.5137,VALID,-0.288674,VALID,21.8991,VALID,25,VALID,0.722656,
2006-04-20, 01:27:00,VALID,917.48,VALID,0,VALID,98.5761,VALID,-0.220751,VALID,22.0815,VALID,25,VALID,0.528011,
2006-04-20, 01:28:00,VALID,917.503,VALID,0,VALID,98.5621,VALID,-0.186789,VALID,22.2397,VALID,23,VALID,0.422805,
2006-04-20, 01:29:00,VALID,917.533,VALID,0,VALID,98.5672,VALID,-0.271693,VALID,21.8418,VALID,23,VALID,0.421094,
2006-04-20, 01:30:00,VALID,917.552,VALID,0,VALID,98.6435,VALID,-0.305655,VALID,21.3818,VALID,23,VALID,0.585379,
2006-04-20, 01:31:00,VALID,917.573,VALID,0,VALID,98.6053,VALID,-0.305655,VALID,22.1051,VALID,20,VALID,0.408296,
2006-04-20, 01:32:00,VALID,917.591,VALID,0,VALID,98.5328,VALID,-0.237732,VALID,21.9505,VALID,19,VALID,0.407774,
2006-04-20, 01:33:00,VALID,917.595,VALID,0,VALID,98.6803,VALID,-0.288674,VALID,20.9053,VALID,19,VALID,0.442406,
2006-04-20, 01:34:00,VALID,917.604,VALID,0,VALID,98.707,VALID,-0.288674,VALID,21.7521,VALID,20,VALID,0.167039,
2006-04-20, 01:35:00,VALID,917.623,VALID,0,VALID,98.7299,VALID,-0.254712,VALID,21.3311,VALID,19,VALID,0.00666921,
2006-04-20, 01:36:00,VALID,917.625,VALID,0,VALID,98.8088,VALID,-0.254712,VALID,21.7874,VALID,20,VALID,0.00102796,
2006-04-20, 01:37:00,VALID,917.634,VALID,0,VALID,98.8838,VALID,-0.305655,VALID,21.7568,VALID,20,VALID,0.0140625,
2006-04-20, 01:38:00,VALID,917.626,VALID,0,VALID,98.8634,VALID,-0.271693,VALID,21.7236,VALID,71,VALID,0.276215,
2006-04-20, 01:39:00,VALID,917.623,VALID,0,VALID,98.7795,VALID,-0.305655,VALID,21.495,VALID,77,VALID,0.0697917,
2006-04-20, 01:40:00,VALID,917.623,VALID,0,VALID,98.8647,VALID,-0.271693,VALID,20.9596,VALID,77,VALID,0.0786701,
2006-04-20, 01:41:00,VALID,917.63,VALID,0,VALID,98.9143,VALID,-0.288674,VALID,21.2826,VALID,77,VALID,0.0683594,
2006-04-20, 01:42:00,VALID,917.639,VALID,0,VALID,98.824,VALID,-0.288674,VALID,22.0072,VALID,67,VALID,0.390988,
2006-04-20, 01:43:00,VALID,917.642,VALID,0,VALID,98.9639,VALID,-0.288674,VALID,19.8745,VALID,38,VALID,0.600419,
2006-04-20, 01:44:00,VALID,917.666,VALID,0,VALID,99.0923,VALID,-0.288674,VALID,21.6867,VALID,24,VALID,0.763719,
2006-04-20, 01:45:00,VALID,917.686,VALID,0,VALID,99.0911,VALID,-0.220751,VALID,22.6178,VALID,16,VALID,0.845274,
2006-04-20, 01:46:00,VALID,917.713,VALID,0,VALID,99.1394,VALID,-0.220751,VALID,21.82,VALID,10,VALID,0.921689,
2006-04-20, 01:47:00,VALID,917.741,VALID,0,VALID,98.9944,VALID,-0.322636,VALID,22.2518,VALID,9,VALID,0.788194,
2006-04-20, 01:48:00,VALID,917.766,VALID,0,VALID,98.9334,VALID,-0.288674,VALID,21.041,VALID,13,VALID,0.793445,
2006-04-20, 01:49:00,VALID,917.787,VALID,0,VALID,99.0275,VALID,-0.20377,VALID,21.9259,VALID,20,VALID,0.964558,
2006-04-20, 01:50:00,VALID,917.809,VALID,0,VALID,99.0402,VALID,-0.220751,VALID,21.9976,VALID,25,VALID,0.752544,
2006-04-20, 01:51:00,VALID,917.837,VALID,0,VALID,98.9792,VALID,-0.20377,VALID,21.1109,VALID,23,VALID,0.240799,
2006-04-20, 01:52:00,VALID,917.834,VALID,0,VALID,98.7681,VALID,-0.20377,VALID,21.7945,VALID,3,VALID,0.122332,
2006-04-20, 01:53:00,VALID,917.842,VALID,0,VALID,98.7325,VALID,-0.20377,VALID,22.4504,VALID,3,VALID,0.106957,
2006-04-20, 01:54:00,VALID,917.848,VALID,0,VALID,98.8393,VALID,-0.220751,VALID,21.977,VALID,3,VALID,0.060902,
2006-04-20, 01:55:00,VALID,917.853,VALID,0,VALID,98.9944,VALID,-0.220751,VALID,21.5279,VALID,3,VALID,0.214753,
2006-04-20, 01:56:00,VALID,917.877,VALID,0,VALID,99.0135,VALID,-0.220751,VALID,21.5456,VALID,3,VALID,0.410334,
2006-04-20, 01:57:00,VALID,917.896,VALID,0,VALID,98.8406,VALID,-0.220751,VALID,21.6243,VALID,3,VALID,0.248512,
2006-04-20, 01:58:00,VALID,917.923,VALID,0,VALID,98.9575,VALID,-0.237732,VALID,21.282,VALID,3,VALID,0.27782,
2006-04-20, 01:59:00,VALID,917.933,VALID,0,VALID,98.9448,VALID,-0.20377,VALID,21.2818,VALID,3,VALID,0.448509,
2006-04-20, 02:00:00,VALID,917.965,VALID,0,VALID,98.8329,VALID,-0.20377,VALID,21.1634,VALID,3,VALID,0.0721726,
2006-04-20, 02:01:00,VALID,917.975,VALID,0,VALID,98.6778,VALID,-0.305655,VALID,23.0481,VALID,2,VALID,0.39577,
2006-04-20, 02:02:00,VALID,917.991,VALID,0,VALID,98.6918,VALID,-0.305655,VALID,21.8344,VALID,9,VALID,0.711119,
2006-04-20, 02:03:00,VALID,917.985,VALID,0,VALID,98.8851,VALID,-0.305655,VALID,21.7967,VALID,19,VALID,0.720117,
2006-04-20, 02:04:00,VALID,917.976,VALID,0,VALID,98.7185,VALID,-0.271693,VALID,21.6134,VALID,18,VALID,0.816667,
2006-04-20, 02:05:00,VALID,917.984,VALID,0,VALID,98.735,VALID,-0.271693,VALID,21.1781,VALID,19,VALID,0.665968,
2006-04-20, 02:06:00,VALID,917.999,VALID,0,VALID,98.7274,VALID,-0.288674,VALID,21.2435,VALID,19,VALID,0.09375,
2006-04-20, 02:07:00,VALID,918.011,VALID,0,VALID,98.5366,VALID,-0.305655,VALID,21.4489,VALID,19,VALID,0.0592296,
2006-04-20, 02:08:00,VALID,917.998,VALID,0,VALID,98.4298,VALID,-0.254712,VALID,21.1848,VALID,19,VALID,0.0719866,
2006-04-20, 02:09:00,VALID,918.015,VALID,0,VALID,98.5036,VALID,-0.254712,VALID,20.8242,VALID,9,VALID,0.636242,
2006-04-20, 02:10:00,VALID,918.04,VALID,0,VALID,98.5023,VALID,-0.254712,VALID,20.4983,VALID,25,VALID,0.46059,
2006-04-20, 02:11:00,VALID,918.051,VALID,0,VALID,98.571,VALID,-0.186789,VALID,20.5968,VALID,28,VALID,0.399148,
2006-04-20, 02:12:00,VALID,918.073,VALID,0,VALID,98.4972,VALID,-0.254712,VALID,21.7102,VALID,27,VALID,0.117969,
2006-04-20, 02:13:00,VALID,918.088,VALID,0,VALID,98.4387,VALID,-0.751571,VALID,21.2883,VALID,20,VALID,0.89566,
2006-04-20, 02:14:00,VALID,918.127,VALID,0,VALID,98.6015,VALID,-0.271693,VALID,21.3943,VALID,1,VALID,0.917874,
2006-04-20, 02:15:00,VALID,918.144,VALID,0,VALID,98.4591,VALID,-0.271693,VALID,22.164,VALID,223,VALID,0.821733,
2006-04-20, 02:16:00,VALID,918.169,VALID,0,VALID,98.0572,VALID,-0.288674,VALID,21.0718,VALID,186,VALID,0.613917,
2006-04-20, 02:17:00,VALID,918.185,VALID,0,VALID,98.3777,VALID,-0.237732,VALID,20.985,VALID,190,VALID,0.100675,
2006-04-20, 02:18:00,VALID,918.205,VALID,0,VALID,98.5163,VALID,-0.288674,VALID,20.5451,VALID,269,VALID,0.35032,
2006-04-20, 02:19:00,VALID,918.219,VALID,0,VALID,98.6396,VALID,-0.237732,VALID,21.6485,VALID,17,VALID,0.611328,
2006-04-20, 02:20:00,VALID,918.24,VALID,0,VALID,98.7032,VALID,-0.220751,VALID,21.6009,VALID,17,VALID,0.21189,
2006-04-20, 02:21:00,VALID,918.266,VALID,0,VALID,98.6066,VALID,-0.254712,VALID,22.0718,VALID,294,VALID,0.380682,
2006-04-20, 02:22:00,VALID,918.271,VALID,0,VALID,98.1997,VALID,-0.288674,VALID,21.8067,VALID,224,VALID,0.928416,
2006-04-20, 02:23:00,VALID,918.291,VALID,0,VALID,98.3612,VALID,-0.305655,VALID,21.8806,VALID,255,VALID,0.375558,
2006-04-20, 02:24:00,VALID,918.306,VALID,0,VALID,98.4489,VALID,-0.305655,VALID,22.0419,VALID,264,VALID,0.350836,
2006-04-20, 02:25:00,VALID,918.335,VALID,0,VALID,98.6066,VALID,-0.305655,VALID,20.8378,VALID,288,VALID,0.329545,
2006-04-20, 02:26:00,VALID,918.35,VALID,0,VALID,98.8749,VALID,-0.271693,VALID,21.4458,VALID,353,VALID,0.328125,
2006-04-20, 02:27:00,VALID,918.368,VALID,0,VALID,98.9118,VALID,-0.220751,VALID,22.4484,VALID,358,VALID,0.583984,
2006-04-20, 02:28:00,VALID,918.387,VALID,0,VALID,98.7515,VALID,-0.288674,VALID,21.4656,VALID,29,VALID,0.855841,
2006-04-20, 02:29:00,VALID,918.383,VALID,0,VALID,98.824,VALID,-0.288674,VALID,21.0769,VALID,351,VALID,0.431504,
2006-04-20, 02:30:00,VALID,918.404,VALID,0,VALID,98.8634,VALID,-0.288674,VALID,20.7267,VALID,354,VALID,0.561481,
2006-04-20, 02:31:00,VALID,918.43,VALID,0,VALID,99.0071,VALID,-0.305655,VALID,22.3307,VALID,16,VALID,0.854911,
2006-04-20, 02:32:00,VALID,918.448,VALID,0,VALID,98.997,VALID,-0.288674,VALID,20.7225,VALID,22,VALID,0.578887,
2006-04-20, 02:33:00,VALID,918.486,VALID,0,VALID,99.072,VALID,-0.237732,VALID,20.5715,VALID,21,VALID,0.616279,
2006-04-20, 02:34:00,VALID,918.524,VALID,0,VALID,99.0707,VALID,-0.254712,VALID,21.1061,VALID,20,VALID,0.766369,
2006-04-20, 02:35:00,VALID,918.547,VALID,0,VALID,99.0516,VALID,-0.254712,VALID,21.3577,VALID,27,VALID,0.783203,
2006-04-20, 02:36:00,VALID,918.565,VALID,0,VALID,99.0313,VALID,-0.237732,VALID,21.5164,VALID,21,VALID,0.647928,
2006-04-20, 02:37:00,VALID,918.579,VALID,0,VALID,99.0135,VALID,-0.237732,VALID,21.4631,VALID,25,VALID,0.656622,
2006-04-20, 02:38:00,VALID,918.578,VALID,0,VALID,99.0771,VALID,-0.237732,VALID,21.3694,VALID,25,VALID,0.468387,
2006-04-20, 02:39:00,VALID,918.557,VALID,0,VALID,99.0249,VALID,-0.220751,VALID,21.5491,VALID,25,VALID,0.18532,
2006-04-20, 02:40:00,VALID,918.541,VALID,0,VALID,99.0249,VALID,-0.271693,VALID,20.9894,VALID,25,VALID,0.11319,
2006-04-20, 02:41:00,VALID,918.529,VALID,0,VALID,98.894,VALID,-0.254712,VALID,21.5319,VALID,25,VALID,0.0615473,
2006-04-20, 02:42:00,VALID,918.529,VALID,0,VALID,98.8711,VALID,-0.237732,VALID,21.06,VALID,25,VALID,0.318182,
2006-04-20, 02:43:00,VALID,918.537,VALID,0,VALID,99.0453,VALID,-0.370437,VALID,21.8436,VALID,25,VALID,0.170732,
2006-04-20, 02:44:00,VALID,918.565,VALID,0,VALID,99.0173,VALID,-0.220751,VALID,21.5648,VALID,30,VALID,0.32777,
2006-04-20, 02:45:00,VALID,918.586,VALID,0,VALID,99.1012,VALID,-0.288674,VALID,21.611,VALID,38,VALID,0.294829,
2006-04-20, 02:46:00,VALID,918.613,VALID,0,VALID,99.2704,VALID,-0.254712,VALID,21.3673,VALID,39,VALID,0.327172,
2006-04-20, 02:47:00,VALID,918.647,VALID,0,VALID,99.1546,VALID,-0.271693,VALID,21.6837,VALID,40,VALID,0.471112,
2006-04-20, 02:48:00,VALID,918.681,VALID,0,VALID,99.147,VALID,-0.254712,VALID,21.0299,VALID,40,VALID,0.290153,
2006-04-20, 02:49:00,VALID,918.697,VALID,0,VALID,99.2119,VALID,-0.271693,VALID,21.5487,VALID,40,VALID,0.115234,
2006-04-20, 02:50:00,VALID,918.717,VALID,0,VALID,99.1127,VALID,-0.254712,VALID,20.8744,VALID,40,VALID,0,
2006-04-20, 02:51:00,VALID,918.735,VALID,0,VALID,98.9792,VALID,-0.288674,VALID,21.6038,VALID,40,VALID,0,
2006-04-20, 02:52:00,VALID,918.742,VALID,0,VALID,98.8329,VALID,-0.254712,VALID,22.2593,VALID,40,VALID,0.243278,
2006-04-20, 02:53:00,VALID,918.77,VALID,0,VALID,98.997,VALID,-0.254712,VALID,21.6308,VALID,40,VALID,0.392578,
2006-04-20, 02:54:00,VALID,918.777,VALID,0,VALID,99.1928,VALID,-0.288674,VALID,21.2835,VALID,36,VALID,0.652083,
2006-04-20, 02:55:00,VALID,918.787,VALID,0,VALID,99.1318,VALID,-0.254712,VALID,21.7639,VALID,24,VALID,0.64623,
2006-04-20, 02:56:00,VALID,918.8,VALID,0,VALID,99.0211,VALID,-0.288674,VALID,21.7071,VALID,17,VALID,0.385901,
2006-04-20, 02:57:00,VALID,918.813,VALID,0,VALID,98.7248,VALID,-0.305655,VALID,21.3974,VALID,23,VALID,0.889509,
2006-04-20, 02:58:00,VALID,918.808,VALID,0,VALID,98.7223,VALID,-0.271693,VALID,21.8995,VALID,28,VALID,0.986328,
2006-04-20, 02:59:00,VALID,918.806,VALID,0,VALID,98.9359,VALID,-0.288674,VALID,20.8633,VALID,19,VALID,1.05736,
2006-04-20, 03:00:00,VALID,918.802,VALID,0,VALID,99.0262,VALID,-0.305655,VALID,20.6435,VALID,11,VALID,0.642428,
2006-04-20, 03:01:00,VALID,918.792,VALID,0,VALID,98.9537,VALID,-0.254712,VALID,21.9839,VALID,12,VALID,0.577939,
2006-04-20, 03:02:00,VALID,918.775,VALID,0,VALID,98.9029,VALID,-0.237732,VALID,21.4141,VALID,28,VALID,0.567882,
2006-04-20, 03:03:00,VALID,918.768,VALID,0,VALID,98.8736,VALID,-0.254712,VALID,21.1287,VALID,20,VALID,0.672276,
2006-04-20, 03:04:00,VALID,918.757,VALID,0,VALID,98.8507,VALID,-0.271693,VALID,20.1797,VALID,359,VALID,0.633384,
2006-04-20, 03:05:00,VALID,918.755,VALID,0,VALID,98.8889,VALID,-0.271693,VALID,21.6809,VALID,17,VALID,0.988991,
2006-04-20, 03:06:00,VALID,918.759,VALID,0,VALID,98.9385,VALID,-0.237732,VALID,21.5136,VALID,28,VALID,1.07559,
2006-04-20, 03:07:00,VALID,918.777,VALID,0,VALID,99.0593,VALID,-0.271693,VALID,20.0986,VALID,5,VALID,0.833984,
2006-04-20, 03:08:00,VALID,918.805,VALID,0,VALID,98.8622,VALID,-0.220751,VALID,20.7425,VALID,343,VALID,0.915661,
2006-04-20, 03:09:00,VALID,918.823,VALID,0,VALID,98.9334,VALID,-0.237732,VALID,20.5437,VALID,351,VALID,0.322621,
2006-04-20, 03:10:00,VALID,918.857,VALID,0,VALID,98.941,VALID,-0.271693,VALID,22.0278,VALID,340,VALID,0.520064,
2006-04-20, 03:11:00,VALID,918.87,VALID,0,VALID,99.0618,VALID,-0.271693,VALID,20.794,VALID,301,VALID,0.356286,
2006-04-20, 03:12:00,VALID,918.864,VALID,0,VALID,99.058,VALID,-0.220751,VALID,20.6191,VALID,312,VALID,0.562153,
2006-04-20, 03:13:00,VALID,918.85,VALID,0,VALID,99.0466,VALID,-0.305655,VALID,20.4846,VALID,341,VALID,0.531808,
2006-04-20, 03:14:00,VALID,918.828,VALID,0,VALID,99.1419,VALID,-0.271693,VALID,21.6018,VALID,341,VALID,0.432546,
2006-04-20, 03:15:00,VALID,918.801,VALID,0,VALID,99.3657,VALID,-0.305655,VALID,20.7334,VALID,342,VALID,0.0973011,
2006-04-20, 03:16:00,VALID,918.791,VALID,0,VALID,99.5425,VALID,-0.271693,VALID,21.3381,VALID,356,VALID,0.397892,
2006-04-20, 03:17:00,VALID,918.78,VALID,0,VALID,99.5908,VALID,-0.254712,VALID,20.8459,VALID,2,VALID,0.151101,
2006-04-20, 03:18:00,VALID,918.777,VALID,0,VALID,99.5921,VALID,-0.254712,VALID,20.4846,VALID,3,VALID,0.232747,
2006-04-20, 03:19:00,VALID,918.774,VALID,0,VALID,99.5679,VALID,-0.254712,VALID,21.0393,VALID,21,VALID,0.688802,
2006-04-20, 03:20:00,VALID,918.778,VALID,0,VALID,99.5666,VALID,-0.237732,VALID,20.9326,VALID,31,VALID,0.58724,
2006-04-20, 03:21:00,VALID,918.802,VALID,0,VALID,99.6506,VALID,-0.237732,VALID,21.6901,VALID,357,VALID,0.371838,
2006-04-20, 03:22:00,VALID,918.793,VALID,0,VALID,99.5043,VALID,-0.220751,VALID,21.0127,VALID,337,VALID,0.504407,
2006-04-20, 03:23:00,VALID,918.795,VALID,0,VALID,99.5717,VALID,-0.271693,VALID,21.4442,VALID,15,VALID,0.587462,
2006-04-20, 03:24:00,VALID,918.789,VALID,0,VALID,99.5921,VALID,-0.237732,VALID,20.2832,VALID,25,VALID,0.274554,
2006-04-20, 03:25:00,VALID,918.804,VALID,0,VALID,99.5717,VALID,-0.271693,VALID,20.7621,VALID,7,VALID,0.725977,
2006-04-20, 03:26:00,VALID,918.81,VALID,0,VALID,99.6722,VALID,-0.237732,VALID,21.2304,VALID,13,VALID,0.773983,
2006-04-20, 03:27:00,VALID,918.805,VALID,0,VALID,99.648,VALID,-0.288674,VALID,21.4919,VALID,24,VALID,0.922396,
2006-04-20, 03:28:00,VALID,918.82,VALID,0,VALID,99.7485,VALID,-0.254712,VALID,21.1561,VALID,27,VALID,0.850654,
2006-04-20, 03:29:00,VALID,918.814,VALID,0,VALID,99.7625,VALID,-0.220751,VALID,21.1197,VALID,27,VALID,0.750908,
2006-04-20, 03:30:00,VALID,918.83,VALID,0,VALID,99.9189,VALID,-0.288674,VALID,20.9321,VALID,29,VALID,0.837326,
2006-04-20, 03:31:00,VALID,918.831,VALID,0,VALID,99.9316,VALID,-0.288674,VALID,21.6477,VALID,28,VALID,1.1726,
2006-04-20, 03:32:00,VALID,918.842,VALID,0,VALID,99.9049,VALID,-0.237732,VALID,21.6761,VALID,23,VALID,1.19568,
2006-04-20, 03:33:00,VALID,918.844,VALID,0,VALID,99.826,VALID,-0.271693,VALID,21.4202,VALID,22,VALID,1.20089,